ARIANE 2 DEB, 26717

Orbit data source: Space-Track

ARIANE 2 DEB, 26717 is space debris in HEO originally from a launch on Fri, 27 Jan 1989 UTC launched from the French Guiana (FRGUI). Debris objects in space refer to the collection of defunct objects orbiting the Earth. Examples of debris include non-operational satellites, rocket bodies, and fragments generated from explosions, collisions, or faulty payload assembly.

Loading next visibility...
Identifier
26717, 1989-006C
Orbit
HEO
Country
Flag of FRFR
Related business
Manufacturer
EADS/LV
Mission
Spacecraft
Bus & Motor
Unknown
Mass
Unknown
Launch date (UTC)
1989-01-27 (37 years ago)
Launch vehicle
Unknown
Launch site
French Guiana (FRGUI)
Object type
Payload
Rocket body
Debris
Shape & HBR
Unknown shape, 1.5 m
Radar Cross Section
Large (>1 m²)

Expand to show TLE details & history
Last TLE update: 1 day ago

TLE from 1 day ago
0 ARIANE 2 DEB
1 26717U 89006C   26104.46199894 -.00000087  00000-0 -16325-4 0  9997
2 26717   7.6871 174.6987 7171509 243.7116  96.1273  2.26355110209037
Epoch: 2026-04-14T11:05Z
TLE epoch observation values (Epoch: 2026-04-14T11:05:16.708Z)
Latitude
5.06906°
Longitude
-153.05727°
Altitude
29,052.99 km
Speed
2.496 km/s
True Right ascension
14h 23m 36s
True Declination
5° 03' 47"
Sunlit
Object was in daylight at epoch
Visualization orbit readout
Latitude
Unknown
Longitude
Unknown
Altitude
Unknown
Speed
Unknown
Apparent Right ascension
Unknown
Apparent Declination
Unknown
Sunlit
N/A
Visualization observer readout
Local Sidereal Time
19:13:03
Azimuth
Unknown
Elevation
Unknown
Doppler factor
Unknown
Orbital elements
Apogee altitude
35,705.051 km
Perigee altitude
553.806 km
Semi-major axis
24,507.565 km
Eccentricity
0.71715
Inclination
7.6871°
RAAN
174.6987°
Arg. of periapsis
243.7116°
True anomaly
157.77557°
Mean anomaly
96.1273°
Eccentric anomaly
128.3509°
Mean motion
0.56571 °/min
Orbital period
636.37 mins
BSTAR
-0.000016325
Loading maneuver chart data...
Computing Atmospheric mass density...
Loading historical data...
Loading historical data...
Loading historical data...
Loading historical data...
Loading historical data...
Loading historical data...
Loading historical data...

Documentation

Showing up to 5 results
|